Theta_e
307 309 310 310 310 311 312 313 314 315 315 317 318 319 320 320 320 319 316 315 313 313 314 315 315 316 318 319 321 322 321 319 318 319 319 319 319 318 318 319 319 318 318 319 320 320 321 321 321 321 320 319 318 317 317 317 317 314 312 311 310 312 313 315 316 317 317 317 317 317 318 318 318 317 315 311 309 307 306 306 307 307 305 303 300 298 297 296 296 294 295 295 295 297 296 295 294 294 295 295 294 293 293
306 307 308 308 309 309 310 311 313 314 315 317 318 319 320 320 319 317 313 312 312 313 313 313 314 315 316 318 320 320 318 317 316 316 317 316 316 317 317 317 317 316 317 318 319 319 319 319 319 319 319 318 317 316 315 313 311 309 306 304 304 305 306 308 311 313 314 315 316 316 317 317 316 314 311 307 305 304 303 304 306 305 304 303 300 297 295 295 294 295 295 294 294 295 298 297 295 293 294 294 293 293 293
304 305 306 307 308 308 309 310 312 314 314 315 316 317 319 319 318 315 312 312 312 313 312 312 312 313 314 316 316 316 315 314 314 316 316 316 316 317 316 316 315 316 317 318 318 318 318 318 318 317 317 316 314 311 308 308 309 310 306 305 305 305 305 306 307 309 310 311 312 313 313 313 311 309 307 305 303 302 301 302 303 302 301 300 298 295 294 295 296 296 294 293 293 294 296 296 295 294 294 293 293 292 292
303 304 305 306 307 308 308 309 310 311 311 312 313 316 317 318 316 314 312 312 312 311 310 310 310 311 311 311 312 312 313 314 316 318 317 317 316 316 316 316 317 318 318 318 317 317 317 317 316 316 315 314 312 309 308 308 309 310 308 308 307 307 307 307 308 308 308 308 308 308 307 307 306 305 304 302 301 301 299 299 300 299 300 298 295 295 296 296 296 294 293 292 293 295 295 295 294 295 293 293 292 292 292
302 303 303 304 305 306 307 308 308 309 309 310 310 312 314 315 315 313 312 311 310 309 309 309 309 309 310 310 311 312 313 315 317 317 316 315 315 317 317 318 318 317 317 316 316 316 316 315 315 314 313 311 309 307 307 307 309 309 309 308 307 307 307 307 307 306 305 305 304 303 303 302 302 302 301 301 300 298 297 297 298 300 299 296 293 293 293 293 294 293 292 292 292 294 295 295 294 293 293 292 292 291 291
302 302 303 303 304 305 306 307 308 308 308 309 310 310 311 311 311 310 308 308 308 307 307 307 308 308 309 309 310 311 310 310 311 312 312 313 315 317 316 316 315 313 313 313 313 313 311 309 307 305 305 304 303 303 304 306 306 306 305 304 302 301 301 301 301 301 300 300 300 300 300 300 299 299 299 299 298 298 297 295 296 298 297 295 294 294 293 292 292 293 293 292 292 292 293 294 294 293 292 292 292 293 292
301 301 302 303 304 305 306 306 307 307 307 308 308 308 308 308 307 306 306 305 305 305 305 306 307 306 308 308 307 305 304 305 306 307 308 309 310 310 307 307 307 307 308 309 310 310 308 304 300 299 299 300 301 302 303 304 304 303 303 302 300 298 298 299 299 298 298 298 298 298 298 297 297 297 297 297 297 297 296 295 294 294 295 295 295 294 293 292 292 292 292 292 292 293 294 294 294 294 292 291 291 292 293
300 300 301 302 303 303 304 305 305 306 307 307 307 307 306 305 304 304 304 304 303 304 304 306 307 306 305 304 302 303 303 303 304 303 303 303 303 302 300 299 299 300 300 301 301 302 302 301 301 302 302 302 303 303 303 303 303 303 302 301 299 297 297 297 297 297 297 297 297 297 296 296 295 295 295 296 296 296 294 294 294 293 294 294 295 294 294 293 292 291 291 291 291 292 294 293 294 295 293 292 291 290 293
299 300 300 301 301 302 303 304 305 305 305 305 305 304 304 303 303 303 304 304 304 304 305 305 304 302 301 301 301 301 302 301 301 301 301 302 302 302 301 301 301 300 300 300 300 300 300 301 302 303 303 303 303 303 303 303 302 301 301 300 298 297 297 296 296 296 296 296 296 295 296 295 295 295 294 294 294 294 294 294 294 294 295 295 295 295 295 293 292 291 290 290 290 291 293 293 292 294 294 293 291 291 292
298 298 299 300 301 302 303 303 303 303 303 302 302 302 302 302 303 304 305 305 305 303 303 302 301 301 301 301 301 301 301 301 300 300 302 303 303 302 302 302 303 302 302 302 302 302 302 302 302 302 301 302 302 302 302 301 301 300 300 299 298 297 297 296 296 295 296 296 296 295 296 296 295 295 294 294 293 294 295 295 294 295 296 296 296 295 295 294 292 292 291 291 290 290 292 292 291 291 292 292 292 292 292
298 298 299 300 300 301 301 301 301 301 301 301 300 300 301 302 303 305 303 303 302 301 301 301 301 301 301 301 301 300 301 301 301 302 303 303 302 302 301 301 301 301 300 300 300 300 300 300 300 300 300 300 301 301 301 300 300 300 299 299 299 297 297 296 296 296 295 295 295 295 295 296 295 294 294 294 294 294 295 295 295 297 298 297 296 296 295 295 295 294 292 292 291 289 291 292 292 291 291 293 293 293 293
298 299 299 299 299 299 299 298 298 299 299 299 299 300 300 300 301 301 301 301 301 301 301 300 300 301 301 301 300 300 300 301 301 302 303 302 301 301 300 299 299 299 298 298 299 299 299 300 300 300 300 300 300 300 300 300 300 299 299 299 299 298 297 296 296 296 295 294 295 295 295 295 295 294 294 294 294 294 294 295 296 297 298 298 297 297 296 295 295 294 293 292 293 291 291 292 294 295 294 294 294 294 293
298 298 298 298 298 298 298 298 298 298 298 299 299 300 301 301 301 301 301 301 300 300 300 300 300 300 301 301 301 300 300 301 301 301 301 301 301 300 300 299 299 298 298 299 299 299 299 299 299 299 299 300 300 300 300 299 299 298 298 299 299 299 297 296 295 295 294 294 294 295 295 295 295 295 294 294 294 294 294 295 296 297 299 298 297 297 296 295 295 295 294 294 295 293 292 292 293 296 294 294 294 294 292
298 298 298 298 298 298 298 298 299 299 299 299 300 301 301 301 301 300 300 300 300 300 300 300 300 300 300 300 300 300 300 300 300 300 301 301 300 300 299 299 299 299 300 300 299 299 299 299 299 299 300 299 299 299 299 299 298 298 298 298 299 298 297 296 295 294 294 293 293 294 294 295 296 296 295 294 294 295 295 296 296 297 300 299 297 296 296 295 295 295 296 296 296 294 293 293 294 295 294 293 293 293 292
298 298 298 298 299 299 299 299 299 299 300 300 301 301 301 300 300 300 299 299 299 300 300 300 299 299 299 299 299 299 299 300 300 299 299 300 300 300 299 299 299 298 299 299 299 299 298 298 298 299 299 299 299 298 298 298 297 297 297 298 298 298 298 297 296 294 294 293 293 293 294 294 296 297 295 295 294 295 296 296 296 298 300 299 297 296 296 295 294 295 297 297 296 296 294 294 294 294 294 294 294 293 293
298 298 298 299 299 300 300 300 300 300 300 300 300 300 300 299 299 299 299 299 299 300 300 299 299 298 298 298 298 298 298 299 299 298 299 299 299 299 298 298 298 297 297 297 297 298 298 298 298 298 298 297 297 297 297 297 296 296 297 297 297 298 298 298 297 296 295 294 294 293 294 295 295 296 296 295 295 295 296 296 296 297 300 300 298 297 296 296 295 296 296 296 295 295 294 293 293 292 293 295 296 295 294
299 299 299 299 299 299 300 300 300 300 299 299 299 299 300 300 299 299 299 299 299 299 299 299 299 298 298 298 298 298 298 298 298 297 297 297 298 298 297 296 296 295 295 295 295 296 296 296 296 296 296 296 296 296 296 296 295 295 296 297 297 297 298 298 298 297 296 295 294 294 295 295 295 296 296 295 295 295 295 296 296 299 300 300 298 298 297 297 297 296 295 295 294 293 293 293 292 293 294 296 297 296 295
299 299 299 299 300 300 300 300 299 299 299 299 299 299 299 299 299 299 299 298 298 298 298 298 297 297 297 297 297 296 296 296 296 296 296 296 296 296 296 295 295 294 294 293 294 294 294 294 294 294 294 294 295 295 295 295 295 295 295 296 296 297 297 297 297 297 297 296 296 295 295 295 295 295 295 295 295 295 296 296 296 299 300 299 298 298 298 298 298 297 295 294 293 293 293 293 293 294 296 297 297 297 295
299 299 299 299 299 299 299 299 298 298 298 298 299 299 299 299 298 298 298 298 297 297 297 296 296 296 296 296 296 295 295 295 295 295 295 295 295 295 295 294 294 293 293 293 293 293 293 292 292 293 293 293 294 294 294 294 294 294 295 295 295 296 296 296 296 297 297 297 297 296 296 296 296 296 296 296 296 296 296 296 296 298 299 298 297 297 297 297 297 297 297 296 295 295 295 295 294 295 296 297 297 296 295
299 299 299 299 299 299 298 298 298 297 297 298 298 298 298 298 297 297 297 297 296 296 295 295 295 295 295 295 295 295 294 294 294 294 294 294 293 293 293 293 293 293 292 292 292 292 292 292 292 292 292 292 292 293 293 293 293 293 294 294 295 295 295 296 296 296 297 297 297 297 297 296 297 297 296 296 296 296 296 297 297 297 297 297 297 296 296 296 296 296 297 298 298 298 298 297 296 296 296 296 296 296 296
299 299 298 298 298 298 297 297 297 296 296 296 296 296 296 296 296 296 296 295 295 294 294 294 293 293 293 294 294 294 293 294 293 293 293 293 293 292 292 292 292 292 292 291 291 291 291 291 291 291 291 292 292 293 293 292 293 293 293 294 294 294 294 295 295 295 296 296 296 296 296 296 296 296 296 296 295 296 296 296 296 296 296 296 296 296 296 296 296 297 297 298 298 298 297 296 296 295 295 295 295 295 295
298 298 297 297 297 296 296 296 296 295 295 295 295 295 295 295 295 294 294 294 293 293 293 292 292 292 292 292 293 293 293 293 293 292 292 292 292 292 292 292 292 291 291 291 291 290 291 291 291 291 291 291 292 292 292 292 292 292 292 292 292 293 293 293 294 295 295 295 295 295 294 294 295 295 294 294 294 294 294 294 295 294 295 295 294 295 295 295 295 296 296 296 296 295 294 294 294 293 294 294 293 293 293
297 297 296 296 296 295 295 295 294 294 294 294 294 293 293 293 293 293 293 293 293 292 292 292 291 291 291 292 292 292 292 292 292 292 292 291 291 291 291 291 291 291 291 291 290 291 290 290 290 291 291 291 291 292 291 291 292 291 291 292 292 292 292 293 293 294 294 294 294 293 293 293 293 293 293 292 292 292 292 292 293 293 293 293 293 293 293 293 293 294 294 294 293 293 293 292 292 293 293 293 293 292 292
296 296 295 295 294 294 293 293 293 293 293 293 293 292 292 291 291 291 291 291 291 291 291 291 291 291 291 291 291 291 291 291 291 291 291 291 291 291 290 291 291 291 290 290 290 290 290 290 290 290 290 290 290 290 291 291 291 291 291 291 292 292 292 292 293 294 293 293 292 292 291 291 291 291 290 290 290 290 290 291 291 291 291 292 291 292 292 292 292 293 293 293 293 292 291 291 291 292 292 292 291 291 291
295 295 295 294 293 293 292 292 292 292 292 292 292 291 291 291 291 291 291 291 291 291 291 290 290 290 290 290 291 291 291 291 290 290 290 290 290 290 289 289 290 289 290 290 290 289 290 289 290 290 289 289 289 289 289 290 290 290 290 291 291 291 292 292 293 293 292 292 291 290 289 289 289 289 289 289 289 289 289 289 290 290 290 290 291 291 291 291 292 292 292 293 292 292 291 291 291 291 290 290 290 290 290
295 295 294 294 293 292 292 292 292 291 291 291 291 290 290 290 290 290 290 290 290 290 290 290 290 290 290 290 290 290 290 290 290 289 289 289 289 289 289 289 289 289 289 289 288 288 289 289 289 289 288 288 289 289 289 289 289 289 290 290 290 290 291 292 293 293 292 290 289 288 288 288 288 288 288 288 288 288 288 288 289 289 289 289 289 289 290 290 291 291 291 292 292 292 292 291 291 290 289 289 289 289 289
295 294 294 293 293 292 292 291 291 291 290 290 290 290 290 290 290 290 290 290 290 290 290 290 290 289 289 289 289 289 289 289 289 289 288 288 288 289 288 288 288 288 287 287 287 287 287 288 289 289 288 289 288 289 288 288 288 289 289 289 289 289 290 291 292 292 290 289 288 287 287 287 287 287 287 287 287 287 287 288 288 289 289 289 289 289 289 289 290 289 290 290 291 291 291 291 290 290 290 290 289 289 290
294 293 293 293 292 292 291 291 290 290 290 290 290 290 290 289 290 290 290 290 290 290 290 290 290 289 289 289 289 289 288 288 288 288 288 288 287 287 287 287 286 286 286 286 286 287 287 288 288 288 288 287 287 287 288 288 288 288 289 289 289 289 289 289 290 290 289 287 287 286 286 286 286 286 287 287 287 287 287 287 288 288 288 288 289 289 289 289 290 290 290 290 290 291 290 290 289 290 290 289 288 288 289
293 292 292 292 292 291 291 291 290 290 290 290 290 290 289 289 289 290 290 290 291 291 290 290 289 289 289 289 288 288 288 288 287 287 287 287 287 286 286 286 285 285 285 285 285 286 285 285 286 287 287 286 286 288 287 287 287 288 288 289 288 287 287 288 289 288 287 286 286 285 285 285 285 285 286 286 286 286 286 286 286 287 287 287 288 289 290 290 291 292 292 291 290 289 289 289 289 289 289 288 288 288 288
292 292 291 291 291 291 291 290 290 290 290 290 290 290 289 290 290 290 291 291 291 291 290 290 289 289 288 288 288 287 287 287 287 287 287 286 286 286 286 285 285 285 285 285 285 285 285 285 285 285 285 286 286 287 287 287 287 287 288 288 287 288 288 288 288 287 286 285 285 284 285 285 285 285 285 286 286 286 286 286 286 286 287 288 289 289 290 291 291 291 291 291 290 289 289 288 288 288 287 287 287 288 288
292 292 291 291 290 290 290 289 289 290 290 290 290 290 290 290 290 290 291 291 291 290 290 289 289 288 287 287 287 287 287 286 286 286 286 286 285 285 285 285 285 284 285 284 284 284 284 285 285 285 285 285 286 286 286 286 286 288 288 287 287 287 286 286 286 285 285 284 284 284 284 284 284 285 285 285 285 285 286 286 286 287 288 289 290 290 290 290 290 290 291 290 290 290 289 288 287 287 287 286 286 287 287
292 291 291 290 290 289 289 289 290 290 290 290 289 290 290 290 290 290 290 290 290 290 289 288 288 287 286 286 286 286 286 286 286 286 285 285 285 285 285 285 285 284 284 284 284 284 284 284 284 284 285 285 285 285 284 284 285 285 286 286 285 286 286 286 286 286 285 285 284 284 284 284 284 284 285 284 284 284 285 286 287 288 289 290 291 290 290 290 289 289 290 289 289 289 289 288 287 286 285 285 285 285 285
291 291 291 290 290 290 289 289 289 289 289 289 289 289 289 289 289 290 290 290 289 289 288 287 287 286 286 286 286 285 285 285 285 285 285 285 284 284 285 285 285 285 285 284 284 284 284 284 284 284 284 285 285 285 284 284 284 284 285 285 286 286 286 287 287 287 286 285 284 284 284 284 284 284 284 284 284 284 286 287 288 289 289 290 290 290 290 289 289 289 289 289 288 287 288 286 284 283 282 282 282 281 282
292 291 290 290 290 290 289 289 289 289 289 288 288 288 288 289 289 290 289 289 288 288 287 287 286 285 285 285 285 285 285 285 285 284 284 284 284 284 284 284 284 285 284 284 284 284 284 284 284 284 284 284 284 284 284 284 284 285 285 286 287 287 287 287 287 287 287 286 285 284 284 284 285 285 284 284 284 285 287 288 289 289 289 289 289 289 289 289 288 288 288 288 287 287 286 284 282 281 280 280 280 280 280
291 290 290 289 289 289 289 289 289 288 288 288 288 288 288 288 289 289 288 288 287 287 286 286 285 284 284 284 284 284 284 284 284 284 284 284 284 284 284 284 284 284 284 284 284 284 284 284 284 284 284 284 284 284 284 285 286 287 287 288 288 289 288 288 288 288 288 287 286 285 285 285 285 286 286 285 286 287 288 289 289 289 288 288 288 288 288 287 286 286 286 285 284 284 282 281 280 280 280 280 280 281 280
290 290 289 289 289 289 288 288 288 288 288 288 288 288 288 288 288 288 288 287 286 286 285 285 284 284 284 284 284 284 284 284 284 284 284 283 283 283 283 283 283 283 283 283 284 284 284 284 285 285 285 285 285 285 286 287 288 288 289 289 289 290 290 289 289 289 288 287 287 286 286 286 287 287 287 288 289 290 290 289 289 288 288 287 287 287 287 286 285 285 284 283 282 282 280 280 280 280 280 280 280 279 278
290 289 289 288 288 288 288 288 288 288 288 288 288 288 288 288 288 287 287 286 285 285 284 284 284 283 283 283 283 283 283 283 283 283 283 283 283 283 283 283 283 283 283 283 284 284 284 285 285 286 287 287 287 287 288 289 289 290 290 290 290 290 289 289 289 288 287 286 286 287 288 288 288 289 289 289 290 290 290 289 288 288 287 287 287 287 286 285 285 284 283 283 282 281 280 280 280 280 280 280 279 279 277
289 289 288 288 288 287 287 287 287 287 287 287 288 288 287 287 287 286 286 285 285 284 284 283 283 283 283 283 283 283 283 283 283 283 283 283 283 283 283 283 283 282 283 283 284 284 285 285 286 286 287 287 288 288 289 289 290 290 290 290 289 289 289 289 288 287 285 285 286 287 288 289 289 290 290 290 290 290 290 289 288 288 287 286 286 286 285 284 284 283 283 283 282 282 281 280 280 280 279 279 279 279 278
289 288 288 287 287 287 287 287 287 287 287 287 287 287 286 286 285 284 285 285 284 284 283 283 282 282 282 283 282 282 282 282 282 282 282 282 282 282 282 282 282 282 283 283 284 285 285 286 287 287 288 288 289 289 289 290 290 290 290 289 289 288 288 287 287 285 284 285 287 288 289 289 290 291 291 291 290 290 290 289 288 287 286 285 285 285 284 283 283 282 282 282 282 282 281 280 280 279 279 279 279 279 279
288 288 287 287 287 287 287 287 287 287 288 288 287 286 285 284 284 284 284 284 284 283 282 282 282 282 282 282 282 282 282 282 282 282 282 282 282 282 282 282 283 283 283 284 285 285 286 287 287 287 289 289 289 289 290 290 290 290 289 289 288 286 286 285 285 283 284 286 287 288 289 290 291 291 290 290 290 290 290 289 288 286 285 285 284 284 284 283 282 282 281 281 281 281 281 280 280 279 279 278 278 278 278
288 287 287 287 287 287 287 287 287 288 287 286 285 284 284 284 284 284 284 284 283 282 282 281 282 282 282 282 282 282 282 282 281 281 281 281 282 282 282 282 283 283 284 285 285 286 286 287 287 288 289 290 290 290 289 289 289 289 289 288 286 285 284 284 283 283 284 285 286 287 288 289 290 290 289 289 288 288 288 288 287 286 285 284 284 283 282 282 282 281 281 281 281 280 280 280 279 278 278 278 277 277 277
287 287 287 287 287 287 287 287 286 286 285 284 283 283 284 284 284 284 284 283 282 281 281 281 281 281 281 281 281 281 281 281 281 281 281 281 281 282 282 282 283 284 284 285 286 286 286 287 288 288 289 290 290 290 289 289 289 289 288 287 285 284 282 282 283 283 284 284 285 286 287 288 288 287 287 287 287 287 287 286 286 285 284 283 282 282 281 281 281 281 280 280 280 280 280 279 279 279 278 277 277 277 276
287 286 286 286 286 286 286 285 284 283 283 283 283 284 284 284 284 283 283 282 281 281 281 280 280 281 281 281 281 281 281 281 281 281 281 281 281 282 282 283 283 284 285 285 286 286 287 287 288 288 289 289 289 290 289 288 287 287 287 286 285 283 282 282 283 284 284 284 284 285 286 287 287 286 286 286 287 286 286 285 285 284 284 283 281 280 280 280 281 281 280 280 280 280 279 279 279 279 278 278 277 276 276
287 286 286 286 285 285 284 283 283 283 283 283 284 284 284 284 283 282 281 281 280 280 280 280 280 279 280 281 281 281 280 280 280 281 281 281 281 281 282 283 283 284 284 285 286 286 287 287 288 289 289 289 289 290 288 287 286 286 286 285 285 283 283 283 284 284 285 285 285 285 286 286 286 286 286 286 286 285 285 284 284 283 282 281 280 280 280 280 280 281 281 280 280 280 280 279 279 278 277 276 275 275 275
286 286 285 285 284 283 283 283 283 283 283 283 283 283 283 282 282 281 280 280 280 280 281 281 280 279 279 280 280 280 280 280 280 280 280 281 281 281 282 282 283 283 284 285 285 286 287 288 289 289 289 289 289 289 288 287 286 284 284 284 284 284 284 284 284 284 285 285 285 285 285 285 285 286 285 285 285 284 283 283 282 281 280 280 279 279 280 280 280 280 280 280 280 279 279 278 277 276 275 274 273 273 273
286 286 285 284 284 283 283 283 283 283 283 283 283 282 281 280 280 279 279 280 280 280 281 281 280 279 279 279 279 280 279 279 279 280 280 280 281 281 282 282 283 283 284 285 285 286 288 289 289 289 289 289 288 288 287 286 285 284 284 284 284 285 285 285 284 285 285 285 285 285 285 285 285 285 284 284 283 283 282 281 280 279 279 279 279 279 279 279 279 279 279 279 278 278 277 277 276 274 273 273 272 272 272
286 285 285 284 284 284 284 284 284 284 283 283 282 280 280 279 278 278 278 278 279 279 279 280 280 279 278 279 279 279 279 279 280 280 280 280 281 281 282 282 283 283 284 284 285 286 288 289 289 288 288 287 287 286 286 285 284 284 284 284 285 285 285 285 285 285 285 285 285 285 284 284 283 283 283 282 281 281 280 279 279 278 278 279 279 279 279 279 279 279 278 277 276 276 275 275 274 274 273 272 272 271 271
286 285 284 284 284 284 284 284 283 283 282 281 280 279 279 278 278 278 278 278 278 277 278 278 278 278 278 279 279 279 279 279 280 280 280 280 281 281 281 282 282 283 284 284 285 287 287 287 287 287 286 286 285 285 285 285 284 284 284 285 285 285 285 285 285 285 285 285 285 284 283 282 281 281 280 279 279 278 278 278 278 278 278 279 279 280 280 279 279 279 278 277 276 275 274 274 274 274 273 273 272 272 272
285 285 284 284 284 284 284 283 283 281 280 279 279 279 278 278 278 279 278 278 278 278 278 278 278 277 278 279 279 278 278 279 280 280 280 280 280 281 281 282 282 283 283 284 285 287 287 287 286 286 285 285 285 285 285 284 284 284 284 284 284 285 285 284 285 285 285 285 284 283 282 281 279 278 278 277 277 277 277 277 278 278 278 279 279 281 282 282 281 280 279 278 277 276 275 274 274 273 273 273 273 273 273
285 285 285 284 284 284 284 282 281 280 279 278 278 278 278 278 278 279 279 278 278 279 279 279 278 278 279 279 278 278 278 279 280 280 280 280 280 281 281 282 282 283 283 283 284 286 287 286 285 285 284 284 284 284 284 284 284 284 284 284 284 284 284 284 284 284 284 283 283 282 281 279 278 278 277 277 277 277 277 277 278 278 278 279 281 283 286 287 286 284 282 280 278 276 275 275 274 274 273 273 273 273 273
285 285 285 285 284 284 282 281 280 279 279 279 278 278 279 278 278 278 278 278 277 278 279 278 278 278 279 279 278 278 279 279 280 280 280 280 280 280 281 282 282 282 283 283 283 285 285 285 284 284 283 283 284 284 283 283 283 283 283 283 283 283 283 283 283 283 283 282 281 280 279 278 278 277 277 276 276 276 276 277 277 278 278 280 282 286 286 286 286 286 285 282 278 275 275 275 275 274 274 273 272 272 272
286 285 285 284 284 282 281 280 280 279 279 279 278 278 278 278 277 277 277 277 277 277 277 278 278 278 279 278 278 277 278 279 279 279 279 279 280 280 281 281 281 281 282 282 283 284 284 284 283 283 283 283 283 283 283 283 283 283 283 283 282 282 282 282 282 282 282 281 280 279 278 278 277 277 277 276 276 276 276 277 277 277 278 279 282 286 286 286 285 285 284 283 280 276 275 274 274 274 273 273 272 271 271
285 285 284 283 282 281 280 280 279 279 279 279 278 278 278 277 277 277 277 277 277 278 278 278 278 278 279 278 278 277 278 279 279 279 279 279 279 280 280 280 280 280 281 281 282 283 283 283 283 282 282 283 283 283 282 283 283 283 282 282 282 282 282 282 282 282 281 281 279 278 278 277 277 277 277 277 277 277 277 276 276 276 275 278 282 286 286 285 285 285 284 283 282 278 275 274 273 273 272 272 272 271 271
284 284 283 283 282 281 280 280 279 279 279 279 278 277 277 277 277 277 277 277 278 279 278 278 278 279 278 278 277 278 278 278 278 278 278 278 278 279 279 279 280 280 281 281 281 282 282 283 282 282 282 282 282 282 282 283 283 282 282 282 282 282 281 281 281 281 281 280 279 278 278 278 278 278 277 277 277 276 276 275 274 274 274 278 282 286 285 285 284 284 284 283 282 281 276 273 272 271 272 272 271 271 271
284 284 283 282 281 281 280 280 279 279 279 278 278 278 278 277 277 277 277 278 279 279 279 279 279 278 278 278 278 278 277 277 277 277 277 278 278 278 279 279 280 280 280 280 280 281 282 282 282 282 282 282 282 283 282 282 282 281 282 281 281 281 281 281 281 281 281 280 279 278 278 278 278 278 277 276 275 274 274 273 273 274 274 277 282 285 285 284 284 284 283 283 282 281 277 274 272 271 271 271 271 271 271
284 283 282 281 280 279 279 279 279 279 278 278 278 278 278 277 277 277 278 279 279 279 279 279 278 278 278 278 278 278 277 277 277 277 277 278 278 278 278 279 279 280 280 280 280 280 281 281 281 281 282 282 282 282 282 281 281 281 281 281 281 281 281 281 281 281 280 280 279 279 279 278 278 277 276 275 273 272 273 273 273 273 273 276 281 285 284 284 284 284 283 283 282 282 277 274 271 270 270 270 270 270 270
283 282 281 279 279 278 278 278 278 278 278 278 277 277 276 276 276 277 278 279 279 278 278 278 278 278 278 278 278 278 277 277 277 277 277 277 278 277 278 278 279 279 279 279 279 279 280 280 281 281 281 282 281 281 281 281 281 281 280 281 281 281 281 281 281 281 280 280 279 279 278 277 276 275 274 273 272 271 271 272 272 272 272 276 280 285 284 284 284 284 283 283 282 282 278 273 270 270 269 269 269 269 270
282 281 281 280 279 278 278 277 277 277 277 277 277 276 276 275 276 277 277 278 277 277 277 277 278 278 278 278 278 277 277 277 277 276 277 277 277 278 278 278 278 279 278 278 279 279 279 280 281 281 281 281 281 281 281 281 281 280 280 280 281 281 280 280 280 280 280 279 278 278 277 276 275 274 273 272 272 271 271 271 271 272 272 276 282 284 284 284 284 284 283 283 282 282 277 273 270 269 269 269 269 269 270
282 282 282 281 280 279 278 278 278 277 277 277 277 276 276 276 277 276 276 277 277 278 278 278 278 278 278 277 277 277 277 277 277 277 276 276 277 278 278 278 278 278 278 278 279 279 279 280 280 280 280 280 280 281 281 281 281 280 280 280 280 280 280 280 280 280 279 278 277 276 276 275 274 273 272 272 271 271 270 271 271 271 271 276 282 284 284 283 283 283 283 283 282 281 276 272 269 269 269 269 269 269 270
Wind_Speed
7 8 8 9 8 8 6 5 5 5 6 7 8 9 9 7 6 5 4 4 5 6 6 7 7 5 4 3 3 2 1 1 1 1 1 2 2 2 3 3 4 4 3 2 1 2 2 4 5 6 5 5 5 4 4 5 6 6 5 4 4 3 3 2 2 2 2 2 3 3 4 5 5 5 5 5 5 4 3 2 2 3 3 3 4 6 5 5 5 5 4 4 4 4 3 3 3 2 3 3 2 2 2
8 8 8 8 8 7 5 4 4 4 5 7 8 8 6 5 4 4 3 4 5 5 7 8 8 4 3 3 3 3 3 2 2 2 2 1 1 2 2 3 3 3 2 1 1 0 1 2 3 4 4 4 4 4 4 4 5 5 4 3 3 2 2 2 1 1 2 2 3 4 5 5 5 5 5 5 5 5 4 3 3 3 4 4 5 5 5 5 5 4 3 2 2 1 1 1 2 1 2 2 2 2 2
8 9 9 9 8 7 6 6 5 6 7 7 7 6 5 4 3 3 3 4 4 5 8 10 9 6 6 5 5 4 3 3 2 2 1 1 1 2 2 2 2 2 1 1 1 1 2 2 3 4 3 3 2 2 3 4 4 4 2 1 1 0 1 1 1 2 3 3 4 5 5 5 5 5 5 5 5 4 4 3 2 3 3 2 2 1 1 2 2 2 1 1 1 1 1 1 0 0 1 2 2 2 2
8 9 9 8 8 7 7 8 9 10 9 8 7 5 5 4 3 3 3 4 5 7 10 11 10 8 7 6 5 5 4 3 2 2 1 1 2 1 1 1 1 1 0 1 1 1 2 2 2 3 3 3 2 3 4 4 4 5 4 4 4 4 3 2 1 1 1 2 2 3 3 3 4 4 4 4 4 3 2 2 1 1 1 1 2 2 1 1 1 1 1 1 1 1 1 1 1 1 1 2 2 1 1
8 8 7 7 7 7 8 10 11 12 12 10 8 7 6 4 3 3 5 7 9 11 12 12 11 9 8 7 6 5 5 4 3 2 1 1 1 1 0 0 0 1 1 1 1 1 1 1 2 3 3 3 3 3 4 4 5 7 8 8 8 9 7 6 5 6 6 6 5 4 4 4 4 4 3 3 3 3 3 2 2 1 1 1 1 1 1 1 1 1 0 0 0 1 0 0 1 1 1 1 1 2 1
7 6 6 6 6 7 9 10 11 11 10 10 9 7 6 6 6 7 9 10 12 13 13 12 12 11 11 10 8 6 6 6 4 2 1 0 0 0 0 1 2 2 2 1 1 2 2 1 1 1 1 2 3 4 5 6 7 9 10 11 11 12 11 9 8 9 9 8 7 5 5 6 6 5 4 4 4 4 4 4 4 3 2 1 1 1 1 1 1 1 1 1 1 1 1 1 0 1 1 1 2 2 1
7 7 7 7 8 8 9 9 9 9 9 9 9 9 8 8 10 11 11 12 12 12 12 12 12 11 11 10 9 9 8 8 7 4 2 2 2 3 3 3 3 2 2 1 1 0 1 2 2 2 2 4 5 6 7 7 7 8 9 11 12 12 12 11 10 10 11 10 8 6 7 7 7 7 6 5 5 5 5 5 5 5 4 3 3 3 2 2 2 1 1 1 1 2 1 1 1 1 1 2 2 2 1
7 8 8 8 8 8 9 9 9 9 10 11 10 10 11 12 12 12 11 11 12 12 12 11 11 12 12 12 12 10 9 9 9 6 5 5 6 6 6 4 3 2 2 1 1 0 1 2 3 4 5 6 7 7 7 7 6 7 8 9 10 11 11 11 10 10 11 11 10 8 9 9 8 8 7 6 5 5 5 5 4 4 4 4 4 5 5 5 4 3 3 2 1 1 1 1 1 1 2 2 2 2 2
7 8 8 8 7 7 8 10 11 12 13 13 12 12 12 12 12 12 11 11 11 12 12 12 12 13 13 12 12 11 11 10 9 6 6 7 7 7 6 5 5 5 4 4 4 4 5 5 6 8 7 7 7 6 6 6 6 5 5 6 8 10 10 9 9 8 9 9 9 9 8 8 8 7 7 7 6 5 5 5 5 4 4 4 4 4 5 5 5 5 5 5 6 5 3 1 0 1 1 1 1 2 2
6 7 8 8 8 9 11 12 13 14 13 13 13 12 10 10 11 11 10 11 12 13 13 14 14 14 13 12 12 11 11 11 9 8 8 8 8 7 7 6 7 7 7 6 6 6 6 6 7 8 7 7 6 5 6 5 5 4 4 5 7 8 8 8 8 8 8 8 8 7 6 6 7 7 6 6 6 5 5 5 5 4 4 4 4 3 3 4 4 4 4 4 4 4 4 4 3 3 1 0 0 1 2
5 7 8 8 9 12 13 13 13 12 12 12 11 10 9 9 10 10 11 12 13 14 15 15 15 15 14 12 11 12 11 11 11 9 9 9 9 8 8 7 7 7 6 6 5 5 5 5 5 5 4 4 4 5 4 4 3 3 4 4 5 7 7 7 7 7 7 6 6 6 5 5 5 5 5 5 5 5 4 4 4 4 4 3 3 3 4 4 4 5 4 3 2 2 2 3 4 4 4 2 1 1 2
8 10 10 10 11 12 13 12 12 10 10 10 9 7 8 10 11 12 13 15 15 15 15 15 15 15 14 12 11 11 12 12 12 11 10 9 9 8 8 8 7 6 6 5 5 5 5 4 4 3 3 3 3 3 3 3 3 4 4 4 4 5 6 6 6 5 5 5 5 5 4 4 4 4 4 4 4 4 3 3 3 2 3 3 3 3 3 3 3 3 2 2 2 2 2 2 2 4 4 3 3 3 4
10 11 11 11 12 12 12 11 11 10 10 9 8 7 10 12 13 14 15 16 16 15 16 16 16 15 14 13 11 10 11 11 12 12 10 9 9 8 8 8 8 7 6 6 6 6 5 5 4 4 5 4 4 3 3 4 4 5 5 4 4 4 5 5 5 4 4 4 4 4 3 3 3 3 3 2 2 2 2 2 2 1 2 2 2 2 2 2 2 2 1 1 1 2 2 1 1 2 3 3 3 4 4
11 11 11 11 12 12 11 11 11 10 9 8 9 10 12 13 14 15 15 15 15 15 16 16 16 15 15 14 13 11 11 11 12 12 11 10 9 8 8 9 9 8 8 8 7 6 6 5 5 5 5 5 4 4 4 5 5 5 5 5 5 5 4 4 4 3 3 4 4 3 3 3 3 2 2 1 1 1 1 1 1 0 1 1 0 0 0 1 1 1 2 2 2 2 2 2 1 1 1 2 2 3 3
11 11 11 11 11 11 11 11 11 10 10 10 11 11 12 13 13 13 13 13 13 14 15 15 15 16 15 14 13 12 12 12 12 11 11 10 9 9 9 9 8 8 8 8 7 7 6 5 5 5 5 5 5 5 5 5 6 6 6 5 5 5 5 5 4 3 4 4 4 4 3 3 3 3 2 2 2 1 1 1 1 1 1 1 1 1 1 1 0 1 2 3 3 3 2 2 1 1 0 1 2 2 2
11 11 11 11 11 11 11 12 12 12 12 11 10 10 11 11 12 12 12 12 13 13 14 15 16 16 15 13 12 12 12 13 13 12 11 11 10 10 9 9 8 8 8 8 7 7 7 6 5 4 5 5 6 6 5 6 7 7 6 6 5 5 5 5 5 5 5 5 5 5 5 5 5 5 4 3 3 3 3 3 2 2 2 1 1 2 2 1 1 1 2 2 2 2 1 1 0 1 1 2 2 2 2
11 11 11 11 10 10 11 12 13 13 11 10 9 9 10 12 12 13 13 13 13 14 15 16 16 16 13 12 11 11 12 12 13 12 12 11 10 10 9 9 9 9 10 9 8 7 6 6 5 5 5 6 6 6 5 6 7 7 6 6 6 6 5 6 6 6 6 7 7 6 7 7 7 7 6 5 5 5 5 4 3 4 3 3 2 3 3 2 2 1 1 1 0 1 1 1 2 2 2 2 2 2 2
13 12 11 10 10 10 11 13 13 12 10 9 9 10 12 13 14 14 14 14 14 15 15 16 16 14 12 11 10 11 12 13 13 13 12 11 10 10 9 9 9 10 10 9 8 8 7 7 6 6 7 7 6 6 6 7 7 7 7 7 6 5 5 5 6 6 6 6 7 7 8 9 9 8 7 7 7 7 6 5 5 5 5 4 4 4 4 4 3 1 0 1 2 1 2 2 3 3 2 2 2 2 3
13 12 11 10 10 10 12 13 12 10 9 9 10 12 13 14 14 13 13 14 14 15 15 15 15 13 11 11 11 12 12 12 13 13 12 12 11 11 9 9 8 9 9 9 9 8 8 8 8 8 8 7 7 7 8 8 7 7 7 6 5 5 5 5 5 5 6 6 7 8 9 9 9 8 7 8 8 8 6 6 5 6 6 6 5 5 5 4 4 2 1 0 1 1 2 2 2 3 2 2 2 2 2
12 12 11 10 10 11 12 12 11 10 9 10 12 13 14 13 13 13 13 13 13 13 14 14 14 13 12 11 11 11 11 11 12 13 12 12 12 11 10 9 9 9 9 8 7 7 7 8 8 8 8 7 7 7 7 7 7 7 6 5 5 5 5 5 5 5 5 6 6 6 8 8 8 6 7 8 8 8 6 6 6 7 7 7 6 6 6 6 6 4 3 2 2 2 2 2 3 4 4 4 4 3 2
11 11 11 10 10 11 12 11 10 10 10 11 13 13 13 12 11 11 12 12 12 12 13 14 14 13 12 12 11 11 11 11 12 13 12 12 12 11 10 10 9 10 9 7 6 6 7 7 7 7 7 6 6 6 6 6 6 6 5 5 5 6 6 6 6 5 5 5 5 5 7 7 6 5 6 6 7 6 6 6 6 7 7 7 7 7 8 8 8 6 5 5 5 6 6 5 5 6 6 7 7 6 6
11 11 11 10 10 11 11 10 10 10 11 12 13 12 11 11 10 10 11 11 11 12 13 14 14 14 12 11 11 10 10 11 12 12 12 12 12 11 10 10 9 9 8 7 6 6 6 6 6 6 6 5 5 4 5 5 5 5 6 6 6 6 6 6 6 5 4 4 4 5 6 6 5 4 5 5 5 5 5 5 5 6 6 7 8 8 9 9 9 7 6 6 7 8 8 8 8 8 7 7 8 8 7
10 10 10 10 10 9 8 8 10 11 12 12 11 10 10 10 10 11 11 10 10 11 12 13 14 13 11 11 10 10 10 11 11 11 12 11 11 10 9 8 8 8 7 6 6 5 5 5 5 5 5 5 4 4 4 4 4 4 5 5 5 5 5 5 5 5 5 4 4 4 5 4 3 3 4 4 4 4 5 5 5 5 7 8 8 8 8 8 8 8 7 6 7 7 7 8 8 8 7 7 8 9 8
10 9 9 9 8 7 7 8 10 11 11 11 10 9 9 10 11 11 11 11 11 12 12 13 14 13 11 10 10 10 10 10 10 10 10 10 9 8 7 7 7 6 5 5 5 5 5 5 4 4 4 4 4 4 4 3 3 4 4 4 4 4 5 5 5 5 4 4 3 3 4 3 3 3 3 4 4 5 5 6 6 6 7 7 7 7 7 7 7 8 7 6 5 5 6 6 6 5 5 6 7 8 7
9 9 8 8 7 7 7 9 11 12 11 10 9 9 9 10 11 11 11 12 12 13 13 13 13 13 11 10 9 9 9 9 9 9 9 8 8 7 7 6 6 5 5 4 4 4 4 4 4 3 3 3 3 4 4 4 4 4 4 4 4 4 4 5 5 4 4 3 3 3 4 3 2 3 4 4 5 5 5 6 6 6 7 6 6 6 6 6 7 7 6 5 4 4 4 4 4 4 4 5 5 5 5
8 8 8 7 7 7 8 10 11 12 11 10 9 9 9 10 10 11 12 12 13 12 13 13 13 12 9 8 8 8 8 8 8 8 8 7 7 6 6 6 5 5 5 4 4 4 4 3 3 3 3 3 3 3 4 4 4 4 4 4 4 4 5 5 5 4 3 3 3 4 4 3 2 3 4 5 5 5 5 5 5 6 6 6 6 6 6 6 5 5 5 4 3 3 4 4 4 3 4 4 4 4 4
8 7 7 7 7 8 10 11 12 11 10 9 9 9 10 10 11 11 12 12 12 11 12 12 12 10 8 7 6 6 7 7 7 7 7 6 6 5 5 5 5 5 5 4 4 4 4 4 3 4 4 4 4 4 4 4 4 4 4 4 5 5 5 5 5 4 3 3 3 4 4 3 3 3 3 4 4 5 5 5 5 5 6 6 6 6 5 5 4 4 4 4 3 3 3 4 4 4 4 4 4 4 3
8 6 6 6 7 9 10 11 11 10 9 9 9 10 11 11 10 10 11 11 11 11 12 12 10 8 7 6 6 6 6 6 6 6 6 6 5 5 5 5 5 5 4 4 4 4 4 5 5 5 5 5 5 4 4 4 4 4 4 4 5 5 5 5 5 4 3 3 3 4 4 3 3 2 2 3 3 4 5 5 5 5 6 6 5 5 5 5 4 4 4 3 3 3 4 4 4 4 3 3 3 2 1
8 7 7 7 8 9 10 10 10 10 10 10 10 10 10 10 9 8 9 10 10 11 12 12 10 7 6 5 5 5 5 5 5 6 6 6 5 6 5 5 5 4 4 4 5 5 5 5 5 5 5 6 6 5 4 4 4 4 4 4 5 5 6 6 5 4 4 3 3 3 4 3 3 2 2 2 3 4 4 5 5 5 5 5 5 5 5 5 5 4 3 3 3 3 3 3 2 2 1 1 1 2 2
7 7 8 9 9 10 10 9 9 9 10 10 10 10 10 8 7 7 8 9 10 11 11 11 9 7 6 5 5 5 5 5 5 5 5 5 6 6 5 5 5 5 5 5 4 5 5 5 5 5 6 6 6 5 5 4 4 4 4 5 5 6 6 6 6 5 4 3 3 3 4 3 3 2 2 2 3 3 3 3 4 4 4 4 4 4 4 4 3 3 2 2 2 2 2 2 3 3 4 4 3 3 3
8 8 9 9 10 9 9 9 9 9 9 10 10 10 9 7 6 6 7 8 9 10 10 9 8 6 5 4 4 4 4 4 4 4 4 4 5 5 5 5 5 5 5 5 5 5 5 5 5 5 6 6 5 5 5 5 6 5 5 6 6 6 6 6 7 6 5 4 4 3 4 3 2 2 2 2 2 2 2 2 3 3 3 3 3 3 2 2 2 2 2 2 2 2 3 3 4 5 4 4 3 3 2
9 9 9 9 9 9 9 9 9 9 9 9 9 9 7 6 5 5 7 8 9 9 8 7 5 4 3 3 2 2 3 3 3 3 3 3 4 4 4 4 4 4 5 5 6 6 6 6 6 6 6 6 5 5 6 6 7 6 7 7 7 6 6 6 6 6 5 5 4 3 3 2 1 1 2 2 2 2 1 2 2 2 2 2 1 1 1 1 2 2 2 2 2 2 2 3 3 3 2 2 2 2 2
9 9 9 9 8 9 9 9 9 9 9 9 8 7 6 5 4 5 8 8 8 8 7 6 4 3 2 2 2 2 2 3 3 4 4 4 3 3 3 3 4 4 5 5 5 6 6 7 7 7 6 6 5 5 6 7 7 8 8 8 7 7 6 6 6 6 6 5 5 4 3 2 1 2 2 2 2 1 1 1 1 1 1 0 1 1 2 2 2 2 2 2 2 2 2 2 2 1 2 2 2 3 2
9 9 8 8 8 8 9 9 9 9 9 8 6 5 4 4 5 6 8 7 6 6 5 4 4 3 2 2 2 2 3 3 3 4 4 4 3 3 4 4 5 5 5 6 6 6 6 7 7 7 6 6 5 6 6 7 7 8 8 8 8 7 7 6 6 6 6 6 5 4 2 1 1 2 2 3 3 3 2 1 1 0 1 2 2 3 3 3 3 2 2 2 2 2 2 2 1 1 2 3 3 3 2
8 8 8 8 8 8 8 8 8 8 8 7 5 4 4 4 5 7 6 5 4 4 4 3 3 3 2 2 2 2 2 3 3 3 3 3 3 4 5 5 6 6 6 6 6 6 7 7 7 7 6 6 6 6 7 7 7 8 8 7 7 7 7 7 7 7 7 6 5 3 1 2 2 2 3 3 3 4 4 3 2 2 2 3 3 3 3 3 2 2 2 3 3 2 2 2 2 1 2 3 3 2 2
8 8 8 8 8 8 7 7 7 7 7 6 5 4 4 4 5 5 5 4 3 3 3 3 2 2 2 2 2 2 2 2 3 3 3 3 3 4 5 5 6 6 6 6 6 6 7 7 7 7 7 6 6 6 7 8 8 8 7 7 7 7 7 8 8 8 7 6 4 1 2 3 3 2 2 3 3 4 5 5 4 3 3 4 4 4 3 2 2 2 3 4 4 3 2 2 2 2 2 3 3 2 2
9 9 9 8 8 7 7 6 6 7 7 6 5 4 3 3 4 4 3 3 3 3 2 2 2 2 2 1 1 2 2 2 2 2 2 3 3 4 4 5 5 6 6 6 6 6 7 7 7 7 6 6 6 7 7 8 8 7 7 7 7 7 8 8 7 7 6 5 3 2 2 2 1 1 1 2 2 4 5 5 5 5 5 5 5 5 4 3 3 3 4 4 5 5 3 3 3 3 3 3 4 3 3
9 9 9 8 8 7 7 6 6 6 6 6 5 4 4 3 3 3 3 3 2 2 2 1 1 2 2 1 1 1 1 1 1 1 2 2 3 4 5 5 5 5 5 6 6 7 7 7 7 7 6 6 6 7 7 7 7 7 7 7 7 7 7 6 6 6 5 3 2 2 1 1 0 1 1 2 3 4 5 5 5 5 5 5 5 5 4 3 3 4 5 6 6 6 5 4 3 3 3 4 4 5 4
9 9 8 8 7 7 6 6 6 6 6 6 5 4 3 3 2 2 2 2 2 2 2 1 1 2 2 1 1 0 0 1 1 1 1 2 3 4 4 4 5 5 5 6 6 7 7 7 7 7 6 6 6 7 7 7 6 6 6 6 5 5 5 5 4 4 4 2 1 1 0 1 1 2 2 3 4 4 5 5 5 5 5 5 5 5 4 4 4 5 6 6 6 7 7 5 4 3 3 4 5 6 6
8 8 7 7 6 6 6 6 6 6 6 5 4 3 3 2 2 2 2 2 2 2 1 1 1 2 2 1 0 0 0 1 1 1 2 2 3 4 4 4 5 5 6 6 6 7 7 7 7 7 6 6 6 7 6 6 6 5 5 5 5 4 4 4 3 3 3 3 2 1 1 1 2 3 3 4 4 5 6 6 6 6 6 5 5 5 5 4 5 5 5 5 6 6 7 6 5 4 4 4 5 6 6
7 7 6 6 6 6 6 6 6 6 5 4 3 3 2 2 2 2 2 2 2 1 1 2 2 2 1 1 0 0 1 1 1 1 2 2 3 3 4 4 5 6 6 6 7 7 7 7 6 6 5 5 6 6 6 6 5 5 5 5 4 4 4 3 3 3 3 3 3 2 2 3 3 4 4 4 5 5 6 6 6 6 6 6 6 5 5 5 4 4 4 4 5 5 6 6 6 5 4 4 5 5 5
7 6 6 6 5 6 6 6 5 5 5 4 3 3 2 2 2 2 2 2 2 2 2 1 2 2 1 0 0 1 1 1 1 1 2 2 3 3 4 5 5 6 6 6 6 7 7 7 7 6 6 6 6 6 6 6 5 5 5 5 5 4 4 3 3 4 3 3 3 3 3 3 3 4 4 5 5 6 6 7 7 7 6 6 5 5 5 5 4 3 3 3 3 4 5 5 5 5 4 4 5 5 5
7 6 6 6 5 5 5 4 4 4 4 4 3 3 3 2 2 2 2 2 2 2 1 1 1 1 1 1 1 1 1 1 1 1 1 2 2 3 4 5 5 6 6 6 6 6 7 7 6 6 6 6 6 7 6 6 5 5 5 5 5 5 4 4 5 5 5 4 4 4 4 4 3 4 5 5 5 6 6 6 7 7 6 6 5 5 4 4 4 3 2 2 2 3 4 4 4 4 4 4 4 5 5
7 6 6 5 5 4 4 4 4 4 4 3 3 3 3 3 2 2 2 2 2 2 1 1 1 1 1 1 1 2 1 1 1 1 1 2 2 3 4 4 5 5 5 6 6 6 6 6 6 6 6 6 6 7 6 6 6 6 6 6 6 5 5 5 5 6 6 5 5 5 5 5 4 4 5 5 6 6 5 6 6 6 6 5 5 4 4 3 3 3 3 2 2 3 3 3 3 3 3 4 4 5 5
6 6 5 5 4 4 4 4 4 4 3 3 3 3 3 3 3 3 3 2 2 2 1 0 1 1 2 2 2 2 1 1 1 1 1 1 2 2 3 4 4 4 5 5 5 5 5 5 6 6 6 6 6 6 6 7 7 7 6 6 6 7 6 6 6 6 6 6 6 6 7 6 5 4 4 5 5 5 5 5 5 5 5 5 4 3 3 3 4 4 3 3 3 3 3 4 4 3 4 4 4 5 5
6 6 6 5 5 4 4 4 4 3 3 2 2 2 3 3 3 3 3 2 2 2 2 1 1 2 2 2 2 2 1 1 0 1 1 1 2 2 3 3 3 4 4 4 4 4 4 4 5 5 5 5 6 6 6 7 7 7 7 7 7 7 7 6 6 6 6 7 7 7 7 7 6 4 4 4 4 4 4 4 4 4 4 4 4 4 5 5 5 5 5 4 4 4 5 5 5 4 5 5 5 5 5
7 7 6 5 5 5 4 4 3 3 2 2 2 2 3 3 3 3 2 2 2 2 2 2 2 2 2 2 2 2 1 1 0 1 1 1 1 2 2 3 3 3 3 3 3 4 3 3 4 4 4 5 5 5 6 6 7 7 7 7 7 7 6 6 6 6 6 6 7 6 6 6 6 5 4 4 4 4 4 4 4 4 5 6 6 7 7 7 7 6 6 5 5 5 5 5 5 5 5 6 7 7 7
7 6 6 5 5 5 4 3 3 2 2 2 2 2 3 3 2 2 1 1 1 2 2 3 3 3 2 2 2 2 1 0 0 0 1 1 1 1 2 2 2 2 2 3 3 3 3 3 3 4 4 5 5 6 6 7 7 7 7 7 7 7 6 6 6 5 6 6 6 6 5 5 5 4 4 4 4 4 4 5 5 5 6 7 7 6 6 6 6 6 6 5 5 5 5 6 6 6 6 6 7 8 8
7 7 6 6 6 5 4 3 3 2 2 2 3 3 2 2 1 1 1 1 1 2 2 3 3 3 3 3 2 2 1 0 0 0 1 1 1 1 1 1 1 2 2 2 3 3 3 3 3 4 5 5 6 6 7 7 7 7 7 7 7 7 7 7 7 6 5 6 6 6 5 5 4 4 5 5 5 5 5 6 6 6 6 6 5 5 6 7 6 5 5 5 5 5 5 5 5 5 5 6 7 8 8
6 7 6 6 5 4 3 3 2 2 3 3 3 3 2 1 1 2 2 2 2 2 3 3 3 2 3 3 2 1 1 1 1 1 1 1 1 1 1 2 2 2 2 2 3 3 3 3 4 4 5 6 6 6 6 7 7 7 7 7 7 8 8 7 7 7 6 5 5 5 5 4 4 4 4 5 5 6 6 6 6 5 5 4 4 5 9 11 11 8 7 5 5 5 5 5 5 5 5 5 6 6 7
6 6 5 4 4 3 3 3 3 3 3 3 3 3 2 2 2 3 3 3 3 3 3 3 3 3 3 3 2 1 1 1 1 1 1 1 2 2 2 2 2 2 2 2 3 3 3 4 4 5 5 6 6 6 6 6 6 6 6 6 7 7 7 7 7 7 6 5 4 4 4 4 3 3 3 4 4 5 5 5 5 4 4 3 4 6 10 12 12 12 10 8 6 5 5 5 5 5 6 6 5 5 5
5 4 4 4 4 4 3 4 4 4 4 4 4 3 3 3 3 3 3 3 2 3 3 3 3 3 3 2 2 1 1 2 2 2 2 2 2 3 2 2 2 2 2 2 3 3 3 4 4 4 5 5 6 6 6 7 6 6 6 6 6 7 7 7 6 6 5 4 3 2 3 3 3 3 3 3 3 3 4 4 4 4 3 3 4 8 10 11 11 12 11 10 7 5 4 5 5 5 6 6 6 5 5
4 4 4 4 4 4 5 5 5 5 4 4 4 4 3 3 3 3 3 3 3 3 3 3 3 3 3 2 1 1 1 2 2 2 3 3 3 3 3 2 2 2 2 2 2 3 3 4 4 4 5 6 6 6 6 6 6 6 6 6 6 7 6 6 6 5 4 3 2 2 2 2 2 2 2 2 2 3 3 3 3 3 3 3 5 8 9 10 10 10 11 10 9 6 4 4 4 4 5 5 5 5 5
4 4 5 6 6 6 6 6 5 5 4 4 4 4 4 4 4 4 3 3 4 4 4 4 4 4 2 1 1 1 2 2 3 3 3 3 3 3 3 2 2 2 2 2 2 3 3 4 4 4 5 5 6 6 6 6 6 6 6 6 7 7 7 6 5 5 4 3 2 2 2 1 1 2 2 2 2 3 3 3 3 3 3 4 5 8 8 9 9 9 10 10 9 7 4 3 3 3 4 4 4 4 5
6 6 7 7 6 6 6 5 5 5 5 5 5 6 6 5 5 4 4 5 5 5 5 4 4 3 1 1 1 2 2 3 3 3 3 3 3 3 3 3 3 2 2 2 2 2 3 4 4 4 5 5 5 5 5 6 6 6 6 6 6 6 6 5 5 5 4 3 2 2 2 2 2 2 2 2 3 3 3 3 3 3 3 3 4 7 7 8 8 8 8 9 8 8 4 3 2 2 3 3 4 5 5
7 7 6 5 4 4 5 5 5 5 5 6 6 6 5 4 4 4 5 6 6 5 5 4 3 2 2 2 3 3 3 3 3 3 3 3 3 3 3 3 3 3 2 2 2 2 3 4 4 4 5 5 5 5 5 6 6 6 6 6 6 5 5 5 5 5 4 3 2 2 2 2 2 2 2 3 2 2 2 2 3 3 3 3 4 6 6 7 7 7 7 7 7 7 4 2 2 2 3 3 4 5 6
5 4 4 3 3 4 4 5 5 5 5 5 4 4 3 3 3 5 5 5 4 3 3 2 2 2 3 3 3 3 3 3 3 3 3 3 3 3 4 4 3 3 2 2 2 2 3 4 4 5 5 5 5 5 6 6 6 5 5 5 5 5 5 5 5 5 4 3 2 2 2 2 2 2 2 2 2 2 2 2 3 3 4 4 4 6 6 6 6 7 7 7 7 6 4 2 2 2 3 3 4 5 6
5 4 4 4 3 4 4 4 5 5 5 4 3 2 2 2 3 5 4 3 2 2 2 2 2 3 3 3 3 3 3 3 3 3 3 3 3 4 4 3 3 2 2 2 2 3 3 4 5 5 5 5 5 5 5 5 6 5 5 5 5 5 5 4 4 5 4 3 2 2 2 2 2 2 2 2 3 2 2 3 3 3 4 4 5 6 7 7 7 7 7 7 7 7 4 2 2 3 3 3 4 5 6
6 5 5 4 4 4 4 4 5 5 5 4 3 2 2 3 4 5 4 3 2 3 3 4 4 4 4 4 3 3 3 3 3 3 3 3 3 4 4 3 3 2 2 2 2 3 4 4 5 5 5 5 5 5 5 6 6 5 6 6 5 5 4 4 3 3 3 2 1 1 1 1 2 2 2 3 3 3 3 3 3 3 3 5 7 8 8 9 9 10 10 10 9 7 4 2 2 3 3 4 5 6 7
Wind_Direction
55 59 57 56 56 55 56 59 63 67 61 51 43 37 30 22 13 8 12 42 65 74 82 84 85 90 112 131 143 151 163 162 144 126 131 151 174 187 197 214 228 241 244 233 174 153 220 245 255 259 262 263 262 260 263 268 269 264 252 238 227 221 212 204 201 212 229 239 243 246 251 256 259 262 266 272 277 281 277 261 233 216 211 210 209 208 203 202 202 204 202 207 213 216 194 184 192 226 243 244 233 208 192
49 51 50 47 43 38 35 36 43 57 57 49 42 36 32 26 21 22 39 56 69 76 83 84 84 83 85 89 97 112 123 125 120 108 110 127 165 190 201 217 230 241 240 243 252 231 240 254 267 276 275 270 261 253 256 260 260 253 239 222 204 180 155 145 153 181 198 211 222 230 236 241 246 251 257 263 267 270 263 248 228 216 214 214 215 211 204 202 205 211 209 206 202 208 208 186 182 210 257 257 239 213 200
45 47 46 44 41 36 35 36 43 57 60 56 50 45 45 42 38 39 55 65 71 75 80 80 79 74 68 66 69 82 96 100 95 77 79 197 210 202 199 210 225 232 267 333 334 313 292 284 278 274 267 259 254 261 271 276 279 284 285 287 287 104 120 137 164 190 200 207 215 224 230 236 245 254 260 265 269 271 269 258 237 223 221 228 238 246 214 212 219 235 261 313 26 47 359 347 336 214 273 272 256 216 197
47 48 47 46 45 46 50 54 59 64 69 69 66 64 64 61 58 60 65 70 71 68 68 69 69 66 64 62 60 57 54 41 19 343 297 255 232 212 194 200 212 211 306 324 299 269 263 264 272 284 296 310 319 318 308 306 313 332 343 350 353 352 349 341 321 310 297 280 265 260 259 262 269 277 282 284 286 290 298 296 282 261 290 342 0 6 354 324 286 288 313 353 32 63 351 344 359 24 288 281 280 274 229
50 50 49 48 48 53 61 65 67 69 74 76 76 71 72 72 71 66 62 61 60 57 55 54 53 51 47 44 40 29 21 11 358 330 296 269 273 284 263 212 115 61 54 17 325 309 299 281 280 287 308 325 333 330 327 333 348 5 6 7 6 2 357 355 357 2 359 354 348 341 340 337 331 322 319 320 327 343 352 354 351 354 356 348 344 354 348 325 303 295 276 251 202 146 209 297 333 29 305 288 296 318 310
53 53 52 51 52 56 64 68 71 73 77 78 77 73 74 73 69 63 58 56 54 52 49 47 45 42 35 30 25 16 21 27 33 38 3 302 288 303 33 53 53 47 50 36 355 335 351 349 323 293 314 340 350 357 0 3 7 12 15 16 15 12 13 15 18 18 15 12 8 6 7 6 4 359 354 351 352 359 3 3 1 358 344 312 290 296 296 286 278 268 243 229 223 208 173 188 293 325 322 310 306 317 323
56 54 55 54 54 56 61 65 68 73 75 74 72 70 66 63 61 59 58 56 54 52 49 45 41 39 34 32 31 31 31 33 36 39 28 28 41 49 48 52 59 67 75 88 98 331 332 335 336 339 7 18 19 15 16 13 10 10 17 19 18 15 19 22 23 21 20 21 21 20 20 19 17 14 9 4 0 4 2 1 360 357 346 336 327 322 317 306 295 290 265 236 220 216 185 157 160 293 305 308 305 304 322
58 56 55 53 52 54 59 61 62 62 61 59 58 56 56 56 57 57 57 56 54 52 50 47 45 45 47 47 46 42 36 32 31 31 27 30 33 33 29 28 30 41 57 71 79 105 348 357 6 15 20 20 19 15 17 17 17 17 20 19 18 19 25 28 28 26 26 26 27 27 25 24 24 25 22 18 15 12 6 2 359 358 355 348 342 337 333 332 332 333 326 324 318 264 200 162 164 216 258 276 287 298 305
59 60 60 58 54 52 54 54 54 54 53 52 51 50 52 55 58 57 55 54 53 54 54 55 56 56 55 52 48 44 39 35 32 31 33 35 36 31 23 19 17 19 21 21 19 18 22 22 21 21 17 13 11 11 14 18 20 19 19 17 18 22 27 31 33 32 32 33 34 35 33 31 31 32 31 30 27 23 20 16 10 4 5 4 359 351 346 344 346 350 348 348 346 340 334 324 222 175 212 238 268 300 301
65 64 66 64 58 51 47 46 47 49 51 52 52 51 53 58 60 58 57 57 58 58 59 59 59 57 54 51 47 43 40 36 34 37 43 46 45 40 35 31 30 29 26 24 24 26 25 25 23 22 15 9 4 7 13 14 12 6 8 15 19 23 25 29 32 33 33 35 36 38 39 38 37 35 36 36 35 33 30 25 19 16 16 15 11 2 356 355 356 357 359 1 359 352 343 337 339 356 7 18 242 304 306
67 61 61 59 55 47 42 40 40 43 49 52 54 55 58 62 64 64 65 66 65 62 60 59 58 56 54 52 48 44 42 39 37 40 49 51 50 47 44 43 42 41 37 33 31 33 32 31 29 24 14 5 1 4 9 5 358 356 4 12 17 20 22 23 25 27 28 31 35 37 40 42 42 39 39 40 41 40 36 29 25 22 22 21 19 13 11 9 5 0 359 356 353 3 5 353 346 347 349 345 318 303 296
57 53 49 48 48 44 39 36 35 37 45 51 55 61 66 67 68 69 68 67 66 63 61 60 59 58 56 54 50 46 45 43 41 42 49 52 50 48 49 50 51 50 49 45 40 38 37 33 28 20 14 8 4 2 356 354 358 6 7 6 9 15 18 19 19 18 15 19 26 33 37 41 44 43 41 42 44 46 44 38 32 24 24 25 25 20 16 10 2 354 352 348 355 34 44 24 351 336 334 326 313 301 284
52 49 44 43 45 47 43 40 38 38 44 49 55 60 65 65 65 65 66 66 65 65 63 62 60 58 57 54 50 45 45 45 45 43 47 50 50 46 46 47 47 46 46 45 41 38 34 26 19 16 14 10 5 1 356 0 6 10 4 2 2 6 9 12 13 7 1 2 7 15 21 26 30 32 33 37 40 43 41 37 30 19 27 33 33 24 8 352 340 337 337 355 31 64 69 68 18 336 332 330 322 308 291
49 46 44 45 48 53 52 50 47 45 47 49 53 56 59 61 62 62 64 65 66 66 65 63 61 59 56 54 51 47 46 47 47 45 46 48 49 46 44 43 42 40 41 41 38 34 29 23 17 15 11 7 2 1 2 5 7 6 2 0 0 358 358 360 1 356 350 347 347 350 356 2 5 4 357 354 359 16 17 11 354 310 12 44 67 74 295 288 310 338 343 354 19 55 68 73 70 53 7 337 319 302 302
50 48 48 49 52 58 60 58 55 52 50 50 51 54 58 60 62 62 64 65 66 66 66 65 63 60 56 54 51 48 47 49 50 48 46 47 49 49 46 45 43 40 40 38 35 30 25 21 15 11 8 7 6 4 4 6 7 4 2 0 358 354 353 351 349 349 346 339 332 328 331 335 338 338 326 314 311 322 327 319 300 273 275 253 223 215 214 215 260 357 355 355 0 15 36 52 63 77 75 256 256 258 279
60 56 55 55 57 59 63 63 59 53 50 49 49 54 59 62 63 64 63 63 64 65 65 64 62 59 56 53 51 50 50 51 52 52 49 49 50 51 51 49 46 43 41 38 32 26 23 18 14 11 11 11 10 6 5 5 5 3 1 359 356 355 354 351 349 350 348 342 334 327 327 327 325 321 313 306 304 309 309 303 292 280 281 275 264 258 250 256 308 10 16 11 3 354 1 17 163 205 225 231 230 222 215
72 66 63 62 61 61 64 63 59 53 49 47 48 54 60 61 61 61 61 61 61 61 62 61 60 58 55 53 52 53 52 53 54 54 52 50 49 51 52 50 47 45 43 39 32 24 21 16 13 14 15 14 11 7 5 5 5 2 0 358 356 356 353 352 351 351 349 346 342 338 336 333 328 322 317 312 310 312 309 305 300 299 300 296 288 286 292 304 319 349 41 71 77 300 270 243 224 218 224 226 221 207 196
78 73 69 67 66 65 65 63 60 55 51 48 50 55 58 59 60 60 60 60 60 60 60 60 60 58 55 53 53 54 54 55 55 55 54 52 51 51 52 51 48 46 44 40 34 26 22 19 17 17 17 14 11 7 7 6 5 1 359 357 355 352 351 351 351 350 348 348 347 347 345 342 337 333 331 329 326 323 321 318 318 320 322 320 317 313 315 317 317 313 179 153 165 204 235 239 235 227 226 224 218 208 201
80 78 74 70 68 67 67 66 64 59 56 53 54 56 58 59 59 60 61 61 61 61 62 62 60 57 53 52 52 53 54 55 56 57 56 54 53 53 53 52 50 47 45 41 36 28 24 22 21 21 17 13 9 7 8 6 3 358 357 354 351 348 350 350 349 348 347 347 348 349 349 347 345 346 349 348 345 341 341 342 344 345 348 347 344 342 339 335 331 326 328 140 160 203 248 261 269 273 279 277 262 234 221
80 79 76 71 68 68 68 68 66 63 60 58 57 57 58 59 60 61 62 62 61 61 63 63 61 56 51 49 49 51 52 55 56 57 56 55 54 54 53 52 50 48 45 41 36 29 27 25 24 23 18 12 7 6 6 4 0 356 352 349 347 349 350 349 347 347 346 346 348 350 350 350 351 357 1 1 360 0 5 8 10 12 11 11 11 11 7 1 356 351 356 7 13 1 347 345 344 340 340 338 337 334 358
80 79 77 74 71 69 70 70 69 67 63 61 59 58 58 59 61 62 63 63 62 61 62 63 61 56 49 46 46 48 49 52 54 55 53 52 51 50 49 47 46 45 43 39 34 31 30 27 24 22 17 11 5 2 2 359 356 352 348 347 348 351 348 346 345 345 344 345 348 352 349 350 355 5 9 10 12 15 19 22 24 26 25 28 31 32 28 24 20 17 21 25 25 21 23 24 23 19 15 11 9 10 17
82 80 80 78 76 74 75 75 75 71 66 63 61 60 60 60 61 63 64 64 63 61 62 62 61 56 49 45 44 45 47 49 51 52 51 50 48 46 45 44 43 42 40 35 32 30 29 26 24 21 15 8 2 358 356 352 349 347 347 348 348 347 345 344 342 341 341 344 348 350 346 349 359 14 17 19 22 26 28 29 30 33 34 38 40 42 38 36 36 38 41 40 37 32 32 32 33 35 37 36 34 33 32
85 83 83 82 81 81 83 82 79 74 70 66 63 63 63 63 63 63 64 64 64 62 62 63 62 58 51 45 42 43 44 46 48 50 49 48 47 45 43 42 41 40 37 33 29 29 26 23 21 19 11 3 355 351 347 344 342 342 343 344 343 341 340 339 337 334 336 342 346 342 340 347 5 22 26 30 34 37 39 39 37 37 40 43 45 46 45 44 46 50 52 50 45 40 37 34 33 35 39 44 47 48 46
88 88 87 87 87 88 88 85 81 76 73 70 67 65 65 65 65 64 65 65 65 64 63 63 62 59 52 45 41 41 43 44 46 48 48 47 46 43 40 40 40 39 36 32 29 26 21 18 15 13 5 354 346 340 338 337 336 336 336 336 336 334 334 332 329 326 330 336 338 330 329 341 7 26 33 38 42 42 45 43 41 40 43 44 45 46 48 49 51 55 59 60 56 52 48 41 35 31 34 42 48 53 53
93 94 95 95 96 94 90 85 80 76 73 71 68 66 66 66 65 65 66 65 64 63 62 62 61 58 51 43 38 40 41 42 44 46 47 46 43 40 38 36 37 36 33 30 27 23 17 12 7 3 354 344 336 333 332 333 333 334 332 331 330 330 329 327 324 320 323 326 325 320 318 329 355 22 35 41 44 43 45 44 43 43 44 44 44 43 45 48 51 55 60 64 66 67 64 58 48 34 31 36 43 50 53
99 99 101 101 100 97 89 83 78 75 73 70 67 65 65 65 65 64 65 65 64 63 63 62 61 58 51 42 37 38 39 41 42 44 45 43 41 38 36 33 31 30 27 24 22 17 11 5 358 352 344 337 332 329 328 328 330 333 332 330 330 331 329 325 319 313 314 316 315 310 309 317 344 21 37 43 45 43 44 45 45 47 47 45 44 43 43 45 48 51 55 57 60 65 71 71 67 52 39 36 38 42 45
102 101 101 101 98 94 86 82 79 77 74 70 67 64 63 63 62 62 64 65 65 65 65 64 62 59 53 44 38 37 38 40 41 42 42 41 38 36 33 30 28 24 19 15 13 10 5 0 356 351 345 339 334 330 328 328 330 333 332 331 330 332 328 322 316 309 309 310 308 304 304 315 341 15 31 41 46 44 43 44 46 47 45 45 44 43 43 43 45 47 50 50 49 49 59 64 64 56 49 46 45 42 35
106 102 100 97 93 87 84 83 82 81 77 73 68 65 63 61 61 62 66 68 69 69 68 66 63 58 52 45 40 37 38 39 40 40 40 38 36 34 30 27 23 18 12 8 6 6 3 360 356 352 346 340 336 332 332 332 333 333 333 333 332 331 328 324 318 310 306 305 304 303 305 316 335 360 20 38 47 48 46 47 47 49 45 44 43 44 43 43 43 44 49 50 47 47 55 61 62 56 54 56 58 46 6
109 107 102 95 89 84 83 84 84 83 81 77 72 67 64 62 61 62 68 72 73 72 71 69 65 58 52 45 39 35 36 36 37 36 35 35 34 32 27 21 15 12 9 6 3 1 359 355 351 346 340 337 335 334 335 336 337 336 335 333 331 329 331 329 322 310 303 301 303 304 307 314 327 346 19 44 54 54 54 54 54 53 50 46 45 47 48 48 48 49 55 61 66 70 77 84 91 95 109 146 173 200 218
110 109 103 97 91 87 85 85 85 85 83 81 77 72 69 66 65 67 72 75 76 75 75 74 71 62 53 45 38 30 31 33 34 33 33 33 32 30 24 16 10 6 4 1 358 355 352 348 344 341 339 336 335 335 338 340 339 338 337 335 334 335 335 330 321 309 300 298 300 302 303 307 319 345 25 52 62 61 59 60 61 60 57 55 54 57 59 63 68 74 87 105 121 130 137 152 168 182 190 195 198 202 206
111 108 103 100 97 95 93 91 89 88 86 84 81 78 76 75 75 77 78 77 76 75 77 78 77 68 58 49 40 30 28 30 33 32 33 33 32 29 22 16 9 4 359 355 352 350 348 346 343 342 338 335 334 336 341 342 341 340 339 336 334 331 327 323 318 311 301 295 295 297 295 299 314 355 26 50 62 64 60 61 65 69 68 67 67 72 81 97 117 132 145 164 180 189 193 198 200 199 199 201 204 210 214
113 109 107 105 104 104 102 99 96 92 89 84 81 81 83 85 85 83 80 76 74 72 73 75 77 74 66 57 45 33 29 29 31 31 29 29 28 26 20 15 9 2 358 354 351 348 348 346 344 341 338 336 336 339 342 341 338 335 334 331 327 324 325 325 323 317 305 297 292 290 286 292 316 3 14 26 41 53 50 56 65 75 79 81 90 116 156 181 192 192 191 202 214 222 227 225 222 219 224 229 232 236 243
114 112 110 108 107 105 103 101 98 93 88 84 82 82 85 87 86 81 77 73 71 70 70 70 70 70 64 52 39 31 28 28 29 31 26 21 18 17 12 8 4 1 359 356 351 347 347 345 343 340 338 338 339 343 342 338 335 333 332 330 328 328 328 326 323 320 310 300 290 280 272 281 328 8 1 358 358 6 13 31 63 87 103 164 219 229 231 232 233 233 230 233 238 244 249 253 258 274 276 266 255 249 255
112 110 107 104 100 98 97 96 94 91 87 85 84 83 85 85 81 76 73 71 69 69 70 70 69 65 52 41 33 31 28 29 30 33 26 17 10 10 8 5 2 2 358 353 349 348 348 346 342 339 338 338 340 341 339 337 335 334 334 334 334 332 327 323 321 320 314 306 295 276 268 301 11 13 1 350 341 329 316 299 275 253 252 251 252 250 248 248 250 254 254 252 253 256 266 279 298 297 267 259 256 252 260
111 108 105 101 98 95 94 94 94 92 89 87 85 84 82 79 76 75 74 72 69 69 71 74 76 77 66 52 42 39 30 28 28 30 21 11 6 8 8 6 4 1 355 351 349 350 348 345 343 341 340 341 342 342 340 339 338 338 339 339 337 331 327 327 327 325 323 318 310 284 329 28 27 14 2 346 332 317 306 297 288 277 268 265 263 261 259 260 262 265 264 265 267 269 277 285 290 270 256 256 259 260 270
116 112 108 106 104 103 101 99 97 95 92 90 89 88 82 76 74 77 78 74 71 71 75 79 85 91 89 76 59 47 33 28 26 23 11 5 5 7 7 6 2 357 351 349 349 350 347 345 345 346 344 345 346 346 344 343 342 341 342 341 339 335 335 334 333 331 331 330 330 355 45 46 32 12 356 339 323 311 303 299 297 292 287 282 280 280 283 285 284 277 271 271 272 273 272 275 275 271 262 262 265 269 276
122 118 116 114 114 114 112 107 102 97 97 99 101 101 94 86 81 82 84 82 80 81 86 92 96 101 95 83 69 57 39 30 23 18 6 2 3 7 7 4 359 353 350 349 350 350 348 349 350 350 348 347 348 347 346 345 344 343 344 343 342 342 342 340 338 336 338 343 359 53 64 61 38 352 329 311 299 294 293 295 298 299 299 297 296 296 300 302 297 284 276 275 275 276 273 269 265 267 267 269 271 275 279
126 124 123 123 124 124 121 116 111 107 110 115 119 119 113 105 97 93 98 101 102 101 100 105 110 109 96 83 70 69 51 28 6 359 1 4 6 9 6 1 355 350 351 352 353 352 352 352 353 352 349 348 348 347 346 345 344 343 345 346 346 345 346 344 342 340 342 354 23 72 88 108 209 252 262 269 276 281 284 287 291 294 294 294 294 295 295 293 288 280 277 276 277 281 282 278 271 268 270 272 275 280 282
127 127 128 128 129 130 128 124 122 121 125 129 132 131 126 121 115 113 119 122 122 116 115 123 128 118 105 95 70 53 48 358 328 327 0 11 12 9 4 358 353 352 356 357 356 354 354 355 355 352 349 348 348 346 346 344 344 342 345 346 346 344 344 342 340 336 339 348 14 81 127 213 243 253 263 272 279 283 283 285 286 286 285 284 284 285 282 279 274 272 273 274 277 282 286 288 287 282 274 272 274 278 280
126 127 129 130 131 132 131 129 129 130 134 137 139 138 135 134 134 138 140 136 132 127 141 147 141 120 110 102 72 351 332 318 319 338 8 15 14 9 2 358 357 0 2 0 357 356 356 356 355 352 350 348 347 345 344 343 343 343 340 339 337 334 333 332 332 333 330 329 326 316 283 276 277 281 283 286 288 290 291 292 292 291 290 288 287 285 282 276 271 268 270 273 277 281 286 290 293 290 280 273 272 273 276
127 128 129 130 132 135 136 135 136 137 142 145 149 150 149 151 152 154 151 143 140 153 168 159 137 115 115 120 120 324 294 296 318 357 12 15 14 8 3 3 6 8 4 1 358 357 356 355 353 352 350 348 346 343 342 341 341 339 332 328 324 321 320 321 322 322 315 311 307 302 291 290 293 295 295 295 296 298 300 302 302 302 301 299 296 293 290 287 282 276 273 273 275 277 282 286 290 290 284 277 273 271 272
131 131 133 136 140 144 144 144 145 148 154 158 162 164 166 166 167 165 159 155 161 176 179 158 135 123 132 168 228 255 268 280 319 12 11 13 13 12 9 10 10 10 5 0 357 356 355 353 351 351 351 349 345 339 338 337 336 333 325 319 314 308 308 311 314 311 304 302 302 301 296 295 297 299 299 299 300 301 304 305 306 306 305 305 303 300 297 296 295 294 285 273 267 268 273 278 281 284 284 281 277 274 270
137 139 144 148 151 153 154 155 158 163 168 171 173 175 178 180 179 176 176 178 180 180 176 161 147 145 170 226 255 262 269 281 328 18 9 8 13 19 17 15 12 9 3 359 356 355 353 350 349 350 351 348 342 336 334 331 329 325 320 314 308 302 302 307 311 310 308 306 306 306 304 302 301 301 301 301 302 303 303 304 305 306 308 309 308 303 298 298 301 306 301 284 267 262 264 268 272 278 282 283 281 278 271
146 149 151 154 158 163 169 173 177 180 183 185 186 189 191 189 187 187 194 194 187 167 158 169 196 199 206 227 251 264 272 284 322 9 8 9 14 24 22 19 13 7 1 357 354 352 349 347 349 352 350 345 338 332 329 325 322 319 316 312 309 305 302 304 309 312 314 316 315 314 312 311 309 307 306 306 306 306 306 308 310 313 315 316 313 306 303 306 315 323 322 312 294 281 278 279 281 286 289 288 285 280 273
150 151 156 163 172 181 186 189 191 192 195 199 205 210 211 208 203 199 199 191 172 136 122 145 257 247 235 236 243 256 263 275 303 350 8 9 14 26 28 22 14 5 359 355 351 347 344 346 350 353 346 338 331 327 325 322 320 317 316 314 311 307 305 306 310 315 320 323 324 324 323 322 321 319 318 317 316 317 320 322 323 324 324 322 322 322 329 337 344 347 343 336 327 319 316 313 312 310 306 299 291 284 276
153 159 168 178 187 194 197 198 200 202 210 220 231 239 238 232 225 216 204 186 159 135 140 180 241 257 253 251 252 255 258 267 308 354 6 5 8 22 30 23 13 2 357 351 344 338 339 346 351 349 337 329 324 323 322 320 320 319 318 315 311 308 308 312 317 323 326 329 330 331 330 329 329 331 333 333 334 337 339 339 337 336 338 342 348 356 359 360 358 355 350 345 340 337 331 326 322 319 314 308 302 296 288
164 171 179 187 195 200 201 202 205 213 229 247 260 260 252 245 239 233 221 203 181 170 182 204 233 256 260 259 255 253 252 263 331 3 0 0 5 16 25 19 10 357 348 340 334 329 331 341 345 338 327 322 321 322 322 322 322 322 320 317 315 313 316 321 327 331 332 332 333 333 333 333 335 339 346 352 355 358 357 355 355 360 6 10 11 9 5 2 357 353 349 346 344 340 334 329 325 322 319 315 312 309 304
175 179 185 192 199 201 202 204 211 227 250 264 265 255 250 248 250 251 251 244 235 228 227 233 243 257 258 255 250 248 242 240 343 350 340 336 350 13 17 8 353 336 330 326 323 319 324 333 336 331 326 325 325 327 326 326 325 324 322 322 322 324 327 331 333 334 335 335 336 338 341 343 346 352 0 6 10 15 14 12 13 19 22 20 15 7 4 2 359 354 350 348 347 344 336 331 328 325 323 321 319 317 315
185 189 193 196 199 199 201 208 221 242 253 252 247 244 246 250 257 258 251 245 242 243 245 247 250 257 256 252 249 249 240 214 207 252 279 288 310 349 342 321 308 308 314 315 314 315 322 329 333 331 331 330 330 329 328 326 325 324 325 327 329 331 333 334 335 335 335 338 341 346 353 358 4 9 11 13 15 19 21 22 22 24 23 18 10 3 11 15 17 11 4 360 357 354 345 339 334 332 329 327 325 323 322
192 197 199 200 199 200 205 213 227 242 240 237 236 237 241 240 229 218 217 213 211 212 225 236 246 252 253 253 251 245 228 215 216 223 244 261 273 274 270 273 283 293 304 309 313 316 323 328 332 334 333 331 329 327 326 325 325 325 327 329 332 333 333 333 333 333 335 340 347 353 359 7 16 24 23 21 20 20 23 24 25 24 19 10 4 8 22 26 28 29 28 23 15 8 1 354 349 345 340 336 331 328 325
198 203 206 208 211 215 219 224 229 234 233 231 228 227 227 224 222 220 221 218 215 214 222 231 241 246 249 249 244 216 207 213 221 220 225 239 249 250 255 263 275 286 299 310 316 316 322 328 332 333 330 328 326 327 328 327 325 324 326 329 331 332 332 331 331 333 337 343 350 354 0 9 19 27 29 29 28 25 25 25 24 21 11 2 6 21 29 31 32 33 34 35 33 24 16 8 2 354 349 344 339 333 328
201 209 216 223 229 236 236 235 234 235 235 232 226 222 222 224 226 227 228 230 231 232 235 236 238 241 244 241 229 197 201 213 224 227 225 233 242 247 251 258 270 283 299 309 312 315 323 327 328 327 327 327 328 328 327 325 322 321 325 329 331 331 329 329 331 333 336 341 346 353 3 12 18 21 23 27 32 35 33 28 22 13 358 352 10 31 34 34 33 32 32 34 37 36 26 17 8 357 351 347 343 337 330
205 216 225 231 235 236 234 232 230 231 231 230 227 222 221 224 226 226 223 224 227 232 233 232 232 234 238 234 216 184 208 217 224 230 233 238 243 251 255 261 268 279 288 297 306 317 322 322 322 324 327 326 325 323 321 318 317 319 323 328 330 329 330 331 333 332 331 334 343 352 357 5 15 18 14 15 23 35 36 30 18 1 342 348 13 36 36 34 32 30 29 30 32 36 29 19 8 358 350 345 340 334 326
213 221 225 226 225 223 223 223 223 226 228 230 230 226 221 218 217 214 210 213 219 223 224 223 223 227 229 219 186 197 219 223 226 229 238 244 248 254 260 263 265 266 272 287 303 316 316 317 318 323 322 319 316 314 313 314 317 320 324 328 329 330 332 332 331 326 325 331 343 338 326 338 6 19 10 7 15 26 26 19 5 348 331 345 12 35 34 31 28 26 25 25 26 29 27 18 5 356 346 339 331 325 317
214 218 219 218 215 213 214 216 220 224 227 228 228 228 223 214 205 198 204 211 215 216 215 216 219 223 214 200 206 220 224 226 228 234 243 249 252 253 258 261 262 261 264 278 296 303 307 310 312 313 310 309 309 310 313 316 318 322 325 327 328 328 327 325 322 319 322 326 328 315 313 334 5 17 9 8 14 20 14 2 346 332 319 330 360 28 30 26 21 20 19 19 19 22 22 14 357 345 335 327 320 314 307
213 218 217 215 213 212 215 218 220 224 225 225 224 225 221 205 189 188 205 212 213 207 206 208 209 197 191 203 215 225 229 229 229 234 245 251 255 254 255 256 258 258 261 269 282 293 300 302 303 302 304 306 309 311 315 318 319 322 322 322 321 320 318 317 319 323 325 324 319 311 320 343 5 10 5 5 5 6 354 336 321 315 308 316 344 19 23 19 13 11 9 9 9 12 12 2 340 329 320 314 309 305 301
215 219 216 215 218 221 223 225 226 229 231 231 229 227 220 197 186 193 210 217 216 204 200 197 193 184 197 208 215 221 230 233 233 232 244 252 258 257 253 253 253 256 256 261 273 286 292 294 296 299 303 307 310 313 315 317 318 318 315 313 313 313 315 321 326 330 329 329 329 328 332 344 357 3 355 349 340 334 319 309 306 307 303 307 331 9 15 10 3 359 357 356 357 1 360 346 324 314 309 304 301 298 297
223 221 217 218 223 227 232 235 237 238 239 239 237 228 216 210 210 213 220 227 233 225 208 203 203 204 207 211 217 221 227 234 239 237 241 250 257 258 256 255 253 252 252 258 269 280 286 290 294 299 303 308 311 314 315 316 316 315 313 314 314 315 319 324 328 327 324 323 322 322 326 336 342 345 334 325 318 312 306 303 303 305 302 309 329 359 5 1 355 351 348 348 349 354 352 338 319 313 308 306 304 301 298
223 220 216 215 218 222 228 233 235 234 229 227 223 209 203 217 227 225 217 218 227 231 214 207 206 213 212 214 217 224 228 235 242 244 243 248 254 259 258 256 253 246 247 257 269 276 283 289 294 299 304 309 313 315 315 315 316 316 316 316 316 315 316 320 321 320 313 307 301 302 314 323 325 322 317 314 312 313 312 311 310 310 307 321 335 352 357 357 354 352 349 350 352 356 352 338 324 320 315 311 308 305 303